{"data":{"norad_id":66027,"intl_designator":"2025-232Y","name":"STARLINK-35341","alt_names":[],"object_type":"PAYLOAD","status":"ACTIVE","operator":null,"country":"US","launch_date":"2025-10-16","launch_site_code":"AFETR","launch_vehicle":null,"mission":null,"orbit_class":"UNKNOWN","rcs_meters":null,"size_class":null,"mass_kg":null,"dimensions":null,"purposes":["comms"],"wikipedia_slug":null,"has_3d_model":false,"image_url":null,"decayed_at":null,"tle_current":{"epoch":"2026-05-25T04:27:13.574592Z","epoch_age_seconds":59098,"freshness":"FRESH","line1":"1 66027U 25232Y   26145.18557378  .00420828  00000+0  12203-1 0  9999","line2":"2 66027  53.1580 108.8527 0001436  62.4804 297.6344 15.33288171 35141","mean_motion":15.33288171,"eccentricity":0.0001436,"inclination_deg":53.158,"raan_deg":108.8527,"arg_perigee_deg":62.4804,"mean_anomaly_deg":297.6344,"bstar":0.012203,"rev_number":3514,"period_min":93.915809645935,"perigee_km":465.02700753078,"apogee_km":466.9926464995,"semimajor_km":6844.1468270151,"source":"CELESTRAK","updated_at":"2026-05-25T13:38:21.018239Z"}}}